Location: *
(43.4667°N, 11.6833°E)
Time: 09:07:46
(UTC+00:00)

Cosmos 1553 Rocket - Pass Details

Date: 19 July 2019
Orbit: 942 x 1007 km, 82.9° (Epoch: 21 August)

Event Time Altitude Azimuth Distance (km) Brightness Sun altitude
Exits shadow 23:43:10 57° 224° (SW) 1,101 3.9 -25.6°
Maximum altitude 23:44:17 70° 279° (W) 1,003 4.0 -25.5°
Drops below altitude 10° 23:50:23 10° 4° (N) 2,683 7.3 -25.4°
Sets 23:52:55 0° 6° (N) 3,639 8.4 -25.3°
